User: anonymous   Login
Location: ??????
(30.5519°N, 47.7720°E)
Time: 22:35:33
(UTC+00:00)
Language:

COSMOS 2406 - Orbit

View from above orbital plane
View from above orbital plane
View from above satellite
View from above satellite

Ground track
Ground track

The orbit data is extracted from the following two-line orbital elements,

1 28352U 04021A   21103.32753655 -.00000157  00000-0 -60097-4 0  9991
2 28352  70.9993  89.3378 0014240 156.2161 203.9621 14.11679514867878
Epoch (UTC): 13 April 2021 07:51:39
Eccentricity: 0.0014240
inclination: 70.9993°
perigee height: 843 km
apogee height: 864 km
right ascension of ascending node: 89.3378°
argument of perigee: 156.2161°
revolutions per day: 14.11679514
mean anomaly at epoch: 203.9621°
orbit number at epoch: 86787

The dashed part of the orbit path shows where the satellite is in the earth's shadow,  

DLR